Time,TemperatureF,DewpointF,PressureIn,WindDirection,WindDirectionDegrees,WindSpeedMPH,WindSpeedGustMPH,Humidity,HourlyPrecipIn,Conditions,Clouds,dailyrainin,SoftwareType,DateUTC
2013-04-26 00:00:00,38.7,31.8,30.30,SSW,195,0.0,1.0,76,0.00,RA,OVC,0.00,WeatherDisplay:10.37,2013-04-26 04:00:00,
2013-04-26 00:05:00,38.6,31.7,30.30,SSW,195,0.0,1.0,76,0.00,CLR,OVC,0.00,WeatherDisplay:10.37,2013-04-26 04:05:00,
2013-04-26 00:10:00,38.6,31.7,30.30,SSW,195,0.0,2.0,76,0.00,CLR,OVC,0.00,WeatherDisplay:10.37,2013-04-26 04:10:00,
2013-04-26 00:15:00,38.7,31.8,30.30,SSW,195,0.0,2.0,76,0.00,CLR,OVC,0.00,WeatherDisplay:10.37,2013-04-26 04:15:00,
2013-04-26 00:20:00,38.5,31.6,30.30,SSW,195,0.0,1.0,76,0.00,CLR,OVC,0.00,WeatherDisplay:10.37,2013-04-26 04:20:00,
2013-04-26 00:25:00,38.3,31.4,30.30,SSW,195,0.0,2.0,76,0.00,CLR,OVC,0.00,WeatherDisplay:10.37,2013-04-26 04:25:00,
2013-04-26 00:30:00,38.3,31.7,30.30,SSW,195,0.0,2.0,77,0.00,CLR,OVC,0.00,WeatherDisplay:10.37,2013-04-26 04:30:00,
2013-04-26 00:40:00,38.2,31.3,30.30,South,177,0.0,1.0,76,0.00,CLR,OVC,0.00,WeatherDisplay:10.37,2013-04-26 04:40:00,
2013-04-26 00:45:00,38.2,31.3,30.30,South,177,0.0,1.0,76,0.00,CLR,OVC,0.00,WeatherDisplay:10.37,2013-04-26 04:45:00,
2013-04-26 00:50:00,38.0,31.5,30.31,South,177,1.0,2.0,77,0.00,CLR,OVC,0.00,WeatherDisplay:10.37,2013-04-26 04:50:00,
2013-04-26 00:55:00,37.9,31.3,30.31,South,177,0.0,1.0,77,0.00,CLR,OVC,0.00,WeatherDisplay:10.37,2013-04-26 04:55:00,
2013-04-26 01:00:00,37.7,31.1,30.31,South,177,0.0,1.0,77,0.00,CLR,OVC,0.00,WeatherDisplay:10.37,2013-04-26 05:00:00,
2013-04-26 01:05:00,37.5,31.0,30.31,South,177,1.0,2.0,77,0.00,CLR,OVC,0.00,WeatherDisplay:10.37,2013-04-26 05:05:00,
2013-04-26 01:10:00,37.4,30.8,30.31,South,177,0.0,2.0,77,0.00,CLR,OVC,0.00,WeatherDisplay:10.37,2013-04-26 05:10:00,
2013-04-26 01:15:00,37.4,31.1,30.31,South,177,0.0,1.0,78,0.00,CLR,OVC,0.00,WeatherDisplay:10.37,2013-04-26 05:15:00,
2013-04-26 01:20:00,37.3,31.1,30.32,South,177,0.0,1.0,78,0.00,CLR,OVC,0.00,WeatherDisplay:10.37,2013-04-26 05:20:00,
2013-04-26 01:25:00,37.2,31.0,30.32,South,177,0.0,2.0,78,0.00,CLR,OVC,0.00,WeatherDisplay:10.37,2013-04-26 05:25:00,
2013-04-26 01:30:00,37.2,31.0,30.32,South,177,0.0,1.0,78,0.00,CLR,OVC,0.00,WeatherDisplay:10.37,2013-04-26 05:30:00,
2013-04-26 01:35:00,37.1,30.9,30.32,South,178,0.0,2.0,78,0.00,CLR,OVC,0.00,WeatherDisplay:10.37,2013-04-26 05:35:00,
2013-04-26 01:40:00,37.1,30.9,30.32,South,180,0.0,1.0,78,0.00,CLR,OVC,0.00,WeatherDisplay:10.37,2013-04-26 05:40:00,
2013-04-26 01:45:00,37.1,30.9,30.32,South,180,0.0,2.0,78,0.00,CLR,OVC,0.00,WeatherDisplay:10.37,2013-04-26 05:45:00,
2013-04-26 01:50:00,37.1,30.9,30.32,South,180,0.0,2.0,78,0.00,CLR,OVC,0.00,WeatherDisplay:10.37,2013-04-26 05:50:00,
2013-04-26 01:55:00,37.1,30.9,30.32,South,180,0.0,1.0,78,0.00,CLR,OVC,0.00,WeatherDisplay:10.37,2013-04-26 05:55:00,
2013-04-26 02:00:00,37.2,30.7,30.32,South,175,0.0,2.0,77,0.00,CLR,OVC,0.00,WeatherDisplay:10.37,2013-04-26 06:00:00,
2013-04-26 02:05:00,37.3,30.7,30.32,SSE,168,0.0,3.0,77,0.00,CLR,OVC,0.00,WeatherDisplay:10.37,2013-04-26 06:05:00,
2013-04-26 02:10:00,37.4,30.8,30.32,SSE,164,1.0,2.0,77,0.00,CLR,OVC,0.00,WeatherDisplay:10.37,2013-04-26 06:10:00,
2013-04-26 02:15:00,37.4,30.5,30.32,SSE,168,0.0,4.0,76,0.00,CLR,OVC,0.00,WeatherDisplay:10.37,2013-04-26 06:15:00,
2013-04-26 02:20:00,37.3,30.5,30.32,South,172,0.0,2.0,76,0.00,CLR,OVC,0.00,WeatherDisplay:10.37,2013-04-26 06:20:00,
2013-04-26 02:25:00,37.3,30.4,30.32,South,172,0.0,2.0,76,0.00,CLR,OVC,0.00,WeatherDisplay:10.37,2013-04-26 06:25:00,
2013-04-26 02:30:00,37.2,30.3,30.32,South,172,0.0,1.0,76,0.00,CLR,OVC,0.00,WeatherDisplay:10.37,2013-04-26 06:30:00,
2013-04-26 02:35:00,37.1,30.2,30.32,South,172,0.0,1.0,76,0.00,CLR,OVC,0.00,WeatherDisplay:10.37,2013-04-26 06:35:00,
2013-04-26 02:40:00,37.1,30.2,30.32,South,172,0.0,1.0,76,0.00,CLR,OVC,0.00,WeatherDisplay:10.37,2013-04-26 06:40:00,
2013-04-26 02:45:00,37.2,30.3,30.32,South,172,1.0,2.0,76,0.00,CLR,OVC,0.00,WeatherDisplay:10.37,2013-04-26 06:45:00,
2013-04-26 02:50:00,37.1,30.2,30.32,South,172,0.0,1.0,76,0.00,CLR,OVC,0.00,WeatherDisplay:10.37,2013-04-26 06:50:00,
2013-04-26 02:55:00,37.1,30.2,30.32,South,172,0.0,1.0,76,0.00,CLR,OVC,0.00,WeatherDisplay:10.37,2013-04-26 06:55:00,
2013-04-26 03:00:00,37.0,30.1,30.32,South,172,1.0,3.0,76,0.00,CLR,OVC,0.00,WeatherDisplay:10.37,2013-04-26 07:00:00,
2013-04-26 03:05:00,36.9,30.0,30.32,South,172,0.0,2.0,76,0.00,CLR,OVC,0.00,WeatherDisplay:10.37,2013-04-26 07:05:00,
2013-04-26 03:10:00,36.8,29.9,30.32,South,172,0.0,1.0,76,0.00,CLR,OVC,0.00,WeatherDisplay:10.37,2013-04-26 07:10:00,
2013-04-26 03:15:00,36.7,29.8,30.32,South,172,0.0,1.0,76,0.00,CLR,OVC,0.00,WeatherDisplay:10.37,2013-04-26 07:15:00,
2013-04-26 03:20:00,36.7,29.8,30.32,South,172,0.0,1.0,76,0.00,CLR,OVC,0.00,WeatherDisplay:10.37,2013-04-26 07:20:00,
2013-04-26 03:25:00,36.6,29.8,30.32,South,172,0.0,1.0,76,0.00,CLR,OVC,0.00,WeatherDisplay:10.37,2013-04-26 07:25:00,
2013-04-26 03:30:00,36.5,30.0,30.32,South,172,0.0,1.0,77,0.00,CLR,OVC,0.00,WeatherDisplay:10.37,2013-04-26 07:30:00,
2013-04-26 03:35:00,36.4,29.6,30.32,South,172,0.0,1.0,76,0.00,CLR,OVC,0.00,WeatherDisplay:10.37,2013-04-26 07:35:00,
2013-04-26 03:40:00,36.3,29.8,30.32,South,172,0.0,1.0,77,0.00,CLR,OVC,0.00,WeatherDisplay:10.37,2013-04-26 07:40:00,
2013-04-26 03:45:00,36.4,29.5,30.32,South,172,0.0,2.0,76,0.00,CLR,OVC,0.00,WeatherDisplay:10.37,2013-04-26 07:45:00,
2013-04-26 03:50:00,36.3,29.8,30.32,South,172,0.0,0.0,77,0.00,CLR,OVC,0.00,WeatherDisplay:10.37,2013-04-26 07:50:00,
2013-04-26 03:55:00,36.3,29.8,30.32,South,172,0.0,1.0,77,0.00,CLR,OVC,0.00,WeatherDisplay:10.37,2013-04-26 07:55:00,
2013-04-26 04:00:00,36.3,29.5,30.32,South,172,0.0,2.0,76,0.00,CLR,OVC,0.00,WeatherDisplay:10.37,2013-04-26 08:00:00,
2013-04-26 04:05:00,36.2,29.7,30.32,South,172,0.0,1.0,77,0.00,CLR,OVC,0.00,WeatherDisplay:10.37,2013-04-26 08:05:00,
2013-04-26 04:10:00,36.3,29.4,30.32,South,172,0.0,2.0,76,0.00,CLR,OVC,0.00,WeatherDisplay:10.37,2013-04-26 08:10:00,
2013-04-26 04:15:00,36.3,29.5,30.32,South,172,0.0,2.0,76,0.00,CLR,OVC,0.00,WeatherDisplay:10.37,2013-04-26 08:15:00,
2013-04-26 04:20:00,36.3,29.5,30.32,South,173,0.0,3.0,76,0.00,CLR,OVC,0.00,WeatherDisplay:10.37,2013-04-26 08:20:00,
2013-04-26 04:25:00,36.3,29.5,30.33,South,173,0.0,1.0,76,0.00,CLR,OVC,0.00,WeatherDisplay:10.37,2013-04-26 08:25:00,
2013-04-26 04:30:00,36.3,29.4,30.33,South,173,1.0,2.0,76,0.00,CLR,OVC,0.00,WeatherDisplay:10.37,2013-04-26 08:30:00,
2013-04-26 04:35:00,36.2,29.4,30.33,South,173,0.0,1.0,76,0.00,CLR,OVC,0.00,WeatherDisplay:10.37,2013-04-26 08:35:00,
2013-04-26 04:40:00,36.1,29.3,30.33,South,173,0.0,2.0,76,0.00,CLR,OVC,0.00,WeatherDisplay:10.37,2013-04-26 08:40:00,
2013-04-26 04:45:00,36.2,29.4,30.33,South,173,0.0,2.0,76,0.00,CLR,OVC,0.00,WeatherDisplay:10.37,2013-04-26 08:45:00,
2013-04-26 04:50:00,36.3,29.5,30.33,South,173,1.0,4.0,76,0.00,CLR,OVC,0.00,WeatherDisplay:10.37,2013-04-26 08:50:00,
2013-04-26 04:55:00,36.6,29.4,30.33,South,174,0.0,3.0,75,0.00,CLR,OVC,0.00,WeatherDisplay:10.37,2013-04-26 08:55:00,
2013-04-26 05:05:00,37.0,29.5,30.33,South,172,1.0,2.0,74,0.00,CLR,OVC,0.00,WeatherDisplay:10.37,2013-04-26 09:05:00,
2013-04-26 05:10:00,37.1,29.6,30.33,South,172,0.0,2.0,74,0.00,CLR,OVC,0.00,WeatherDisplay:10.37,2013-04-26 09:10:00,
2013-04-26 05:15:00,37.2,29.6,30.33,South,172,0.0,1.0,74,0.00,CLR,OVC,0.00,WeatherDisplay:10.37,2013-04-26 09:15:00,
2013-04-26 05:20:00,37.2,29.7,30.33,South,172,0.0,2.0,74,0.00,CLR,OVC,0.00,WeatherDisplay:10.37,2013-04-26 09:20:00,
2013-04-26 05:25:00,37.2,29.7,30.33,South,172,1.0,2.0,74,0.00,CLR,OVC,0.00,WeatherDisplay:10.37,2013-04-26 09:25:00,
2013-04-26 05:30:00,37.2,29.3,30.33,South,172,0.0,1.0,73,0.00,CLR,OVC,0.00,WeatherDisplay:10.37,2013-04-26 09:30:00,
2013-04-26 05:35:00,37.2,29.3,30.33,South,172,0.0,1.0,73,0.00,CLR,OVC,0.00,WeatherDisplay:10.37,2013-04-26 09:35:00,
2013-04-26 05:40:00,37.2,29.6,30.33,South,172,0.0,1.0,74,0.00,CLR,OVC,0.00,WeatherDisplay:10.37,2013-04-26 09:40:00,
2013-04-26 05:45:00,37.0,29.5,30.33,South,172,0.0,2.0,74,0.00,CLR,OVC,0.00,WeatherDisplay:10.37,2013-04-26 09:45:00,
2013-04-26 05:50:00,36.8,29.3,30.33,South,172,0.0,2.0,74,0.00,CLR,OVC,0.00,WeatherDisplay:10.37,2013-04-26 09:50:00,
2013-04-26 05:55:00,36.7,29.2,30.33,South,172,0.0,1.0,74,0.00,CLR,OVC,0.00,WeatherDisplay:10.37,2013-04-26 09:55:00,
2013-04-26 06:00:00,36.6,29.1,30.33,South,172,0.0,2.0,74,0.00,CLR,OVC,0.00,WeatherDisplay:10.37,2013-04-26 10:00:00,
2013-04-26 06:05:00,36.6,29.1,30.33,South,172,0.0,2.0,74,0.00,CLR,OVC,0.00,WeatherDisplay:10.37,2013-04-26 10:05:00,
2013-04-26 06:10:00,36.3,29.1,30.33,South,172,1.0,2.0,75,0.00,CLR,OVC,0.00,WeatherDisplay:10.37,2013-04-26 10:10:00,
2013-04-26 06:15:00,36.1,29.0,30.33,South,172,1.0,2.0,75,0.00,CLR,OVC,0.00,WeatherDisplay:10.37,2013-04-26 10:15:00,
2013-04-26 06:20:00,36.1,29.3,30.33,South,172,1.0,2.0,76,0.00,CLR,OVC,0.00,WeatherDisplay:10.37,2013-04-26 10:20:00,
2013-04-26 06:25:00,36.1,28.9,30.33,South,172,0.0,3.0,75,0.00,CLR,OVC,0.00,WeatherDisplay:10.37,2013-04-26 10:25:00,
2013-04-26 06:30:00,36.1,28.9,30.33,South,172,0.0,2.0,75,0.00,CLR,OVC,0.00,WeatherDisplay:10.37,2013-04-26 10:30:00,
2013-04-26 06:35:00,36.0,29.2,30.33,South,172,0.0,1.0,76,0.00,CLR,OVC,0.00,WeatherDisplay:10.37,2013-04-26 10:35:00,
2013-04-26 06:40:00,35.8,29.0,30.33,South,172,1.0,2.0,76,0.00,CLR,OVC,0.00,WeatherDisplay:10.37,2013-04-26 10:40:00,
2013-04-26 06:45:00,35.7,28.9,30.33,South,172,1.0,2.0,76,0.00,CLR,OVC,0.00,WeatherDisplay:10.37,2013-04-26 10:45:00,
2013-04-26 06:50:00,35.7,28.9,30.33,South,172,0.0,2.0,76,0.00,CLR,OVC,0.00,WeatherDisplay:10.37,2013-04-26 10:50:00,
2013-04-26 06:55:00,35.7,28.9,30.34,South,172,0.0,2.0,76,0.00,CLR,OVC,0.00,WeatherDisplay:10.37,2013-04-26 10:55:00,
2013-04-26 07:00:00,35.7,28.9,30.34,South,172,0.0,2.0,76,0.00,FEW,OVC,0.00,WeatherDisplay:10.37,2013-04-26 11:00:00,
2013-04-26 07:05:00,35.7,29.2,30.34,South,172,1.0,2.0,77,0.00,FEW,OVC,0.00,WeatherDisplay:10.37,2013-04-26 11:05:00,
2013-04-26 07:10:00,35.7,29.2,30.34,South,172,0.0,2.0,77,0.00,FEW,OVC,0.00,WeatherDisplay:10.37,2013-04-26 11:10:00,
2013-04-26 07:15:00,35.7,29.2,30.34,South,172,0.0,1.0,77,0.00,FEW,OVC,0.00,WeatherDisplay:10.37,2013-04-26 11:15:00,
2013-04-26 07:20:00,35.8,29.3,30.35,South,172,0.0,1.0,77,0.00,FEW,OVC,0.00,WeatherDisplay:10.37,2013-04-26 11:20:00,
2013-04-26 07:25:00,36.0,29.2,30.35,South,172,0.0,1.0,76,0.00,FEW,OVC,0.00,WeatherDisplay:10.37,2013-04-26 11:25:00,
2013-04-26 07:30:00,36.3,29.4,30.35,South,172,0.0,1.0,76,0.00,FEW,OVC,0.00,WeatherDisplay:10.37,2013-04-26 11:30:00,
2013-04-26 07:35:00,36.6,29.7,30.35,South,172,0.0,1.0,76,0.00,FEW,OVC,0.00,WeatherDisplay:10.37,2013-04-26 11:35:00,
2013-04-26 07:40:00,37.0,30.1,30.35,South,172,0.0,1.0,76,0.00,FEW,OVC,0.00,WeatherDisplay:10.37,2013-04-26 11:40:00,
2013-04-26 07:45:00,37.3,30.1,30.35,South,172,0.0,2.0,75,0.00,FEW,OVC,0.00,WeatherDisplay:10.37,2013-04-26 11:45:00,
2013-04-26 07:50:00,37.7,30.2,30.36,South,172,1.0,3.0,74,0.00,FEW,OVC,0.00,WeatherDisplay:10.37,2013-04-26 11:50:00,
2013-04-26 07:55:00,38.2,30.3,30.36,South,172,1.0,2.0,73,0.00,FEW,OVC,0.00,WeatherDisplay:10.37,2013-04-26 11:55:00,
2013-04-26 08:00:00,38.6,30.4,30.36,South,172,1.0,3.0,72,0.00,BKN,OVC,0.00,WeatherDisplay:10.37,2013-04-26 12:00:00,
2013-04-26 08:05:00,39.1,30.8,30.36,South,170,1.0,3.0,72,0.00,BKN,OVC,0.00,WeatherDisplay:10.37,2013-04-26 12:05:00,
2013-04-26 08:10:00,39.6,31.0,30.37,SSE,162,0.0,3.0,71,0.00,BKN,OVC,0.00,WeatherDisplay:10.37,2013-04-26 12:10:00,
2013-04-26 08:15:00,40.1,31.5,30.37,SE,142,1.0,2.0,71,0.00,BKN,OVC,0.00,WeatherDisplay:10.37,2013-04-26 12:15:00,
2013-04-26 08:20:00,40.8,31.7,30.37,SE,131,0.0,3.0,70,0.00,BKN,OVC,0.00,WeatherDisplay:10.37,2013-04-26 12:20:00,
2013-04-26 08:25:00,41.2,31.8,30.37,SSE,155,0.0,5.0,69,0.00,BKN,OVC,0.00,WeatherDisplay:10.37,2013-04-26 12:25:00,
2013-04-26 08:30:00,41.7,31.9,30.37,SSE,161,1.0,3.0,68,0.00,BKN,OVC,0.00,WeatherDisplay:10.37,2013-04-26 12:30:00,
2013-04-26 08:35:00,42.1,31.6,30.37,South,170,2.0,5.0,66,0.00,BKN,OVC,0.00,WeatherDisplay:10.37,2013-04-26 12:35:00,
2013-04-26 08:40:00,42.6,32.4,30.37,South,174,1.0,4.0,67,0.00,BKN,OVC,0.00,WeatherDisplay:10.37,2013-04-26 12:40:00,
2013-04-26 08:45:00,43.1,32.5,30.37,South,184,2.0,5.0,66,0.00,BKN,OVC,0.00,WeatherDisplay:10.37,2013-04-26 12:45:00,
2013-04-26 08:50:00,43.6,32.6,30.37,South,176,2.0,5.0,65,0.00,BKN,OVC,0.00,WeatherDisplay:10.37,2013-04-26 12:50:00,
2013-04-26 08:55:00,44.2,32.4,30.38,South,188,2.0,8.0,63,0.00,BKN,OVC,0.00,WeatherDisplay:10.37,2013-04-26 12:55:00,
2013-04-26 09:00:00,44.6,32.4,30.38,South,188,5.0,6.0,62,0.00,FEW,OVC,0.00,WeatherDisplay:10.37,2013-04-26 13:00:00,
2013-04-26 09:05:00,45.0,31.9,30.38,South,185,6.0,7.0,60,0.00,FEW,OVC,0.00,WeatherDisplay:10.37,2013-04-26 13:05:00,
2013-04-26 09:10:00,45.3,32.3,30.38,South,178,3.0,7.0,60,0.00,FEW,OVC,0.00,WeatherDisplay:10.37,2013-04-26 13:10:00,
2013-04-26 09:15:00,45.9,32.4,30.37,SSE,159,3.0,7.0,59,0.00,FEW,OVC,0.00,WeatherDisplay:10.37,2013-04-26 13:15:00,
2013-04-26 09:20:00,46.3,31.9,30.37,South,170,2.0,8.0,57,0.00,FEW,OVC,0.00,WeatherDisplay:10.37,2013-04-26 13:20:00,
2013-04-26 09:25:00,46.6,32.2,30.37,South,185,6.0,9.0,57,0.00,FEW,OVC,0.00,WeatherDisplay:10.37,2013-04-26 13:25:00,
2013-04-26 09:30:00,46.8,31.9,30.37,South,177,5.0,10.0,56,0.00,FEW,OVC,0.00,WeatherDisplay:10.37,2013-04-26 13:30:00,
2013-04-26 09:35:00,47.2,32.7,30.38,South,177,2.0,7.0,57,0.00,FEW,OVC,0.00,WeatherDisplay:10.37,2013-04-26 13:35:00,
2013-04-26 09:40:00,47.7,32.7,30.38,South,175,3.0,7.0,56,0.00,FEW,OVC,0.00,WeatherDisplay:10.37,2013-04-26 13:40:00,
2013-04-26 09:45:00,48.1,31.3,30.37,South,181,6.0,9.0,52,0.00,FEW,OVC,0.00,WeatherDisplay:10.37,2013-04-26 13:45:00,
2013-04-26 09:50:00,48.3,32.9,30.36,South,180,3.0,7.0,55,0.00,FEW,OVC,0.00,WeatherDisplay:10.37,2013-04-26 13:50:00,
2013-04-26 09:55:00,48.8,32.9,30.36,South,178,2.0,9.0,54,0.00,FEW,OVC,0.00,WeatherDisplay:10.37,2013-04-26 13:55:00,
2013-04-26 10:00:00,48.6,32.2,30.37,South,188,6.0,12.0,53,0.00,FEW,OVC,0.00,WeatherDisplay:10.37,2013-04-26 14:00:00,
2013-04-26 10:05:00,48.5,33.0,30.37,South,181,2.0,12.0,55,0.00,FEW,OVC,0.00,WeatherDisplay:10.37,2013-04-26 14:05:00,
2013-04-26 10:10:00,48.6,31.7,30.37,South,173,5.0,7.0,52,0.00,FEW,OVC,0.00,WeatherDisplay:10.37,2013-04-26 14:10:00,
2013-04-26 10:15:00,48.9,32.9,30.37,South,178,1.0,5.0,54,0.00,FEW,OVC,0.00,WeatherDisplay:10.37,2013-04-26 14:15:00,
2013-04-26 10:20:00,49.5,33.1,30.37,SSW,195,3.0,9.0,53,0.00,FEW,OVC,0.00,WeatherDisplay:10.37,2013-04-26 14:20:00,
2013-04-26 10:25:00,49.7,32.3,30.37,SSW,194,6.0,9.0,51,0.00,FEW,OVC,0.00,WeatherDisplay:10.37,2013-04-26 14:25:00,
2013-04-26 10:30:00,49.9,32.0,30.37,SSW,204,6.0,10.0,50,0.00,FEW,OVC,0.00,WeatherDisplay:10.37,2013-04-26 14:30:00,
2013-04-26 10:35:00,49.8,32.4,30.37,SSW,209,3.0,12.0,51,0.00,FEW,OVC,0.00,WeatherDisplay:10.37,2013-04-26 14:35:00,
2013-04-26 10:40:00,49.9,31.5,30.37,SSW,195,3.0,12.0,49,0.00,FEW,OVC,0.00,WeatherDisplay:10.37,2013-04-26 14:40:00,
2013-04-26 10:45:00,50.0,31.0,30.37,South,184,7.0,14.0,48,0.00,FEW,OVC,0.00,WeatherDisplay:10.37,2013-04-26 14:45:00,
2013-04-26 10:50:00,50.1,31.2,30.37,South,191,7.0,12.0,48,0.00,FEW,OVC,0.00,WeatherDisplay:10.37,2013-04-26 14:50:00,
2013-04-26 10:55:00,50.5,31.0,30.37,SSW,203,5.0,10.0,47,0.00,FEW,OVC,0.00,WeatherDisplay:10.37,2013-04-26 14:55:00,
2013-04-26 11:00:00,51.0,32.0,30.36,South,191,2.0,12.0,48,0.00,FEW,OVC,0.00,WeatherDisplay:10.37,2013-04-26 15:00:00,
2013-04-26 11:05:00,51.9,31.7,30.36,South,182,6.0,10.0,46,0.00,FEW,OVC,0.00,WeatherDisplay:10.37,2013-04-26 15:05:00,
2013-04-26 11:10:00,52.1,31.4,30.36,South,181,5.0,8.0,45,0.00,FEW,OVC,0.00,WeatherDisplay:10.37,2013-04-26 15:10:00,
2013-04-26 11:15:00,52.3,32.1,30.36,South,178,3.0,10.0,46,0.00,FEW,OVC,0.00,WeatherDisplay:10.37,2013-04-26 15:15:00,
2013-04-26 11:20:00,52.8,31.4,30.36,South,173,3.0,13.0,44,0.00,FEW,OVC,0.00,WeatherDisplay:10.37,2013-04-26 15:20:00,
2013-04-26 11:25:00,53.0,31.7,30.36,SSE,153,3.0,10.0,44,0.00,FEW,OVC,0.00,WeatherDisplay:10.37,2013-04-26 15:25:00,
2013-04-26 11:30:00,53.2,31.3,30.36,SSE,151,3.0,9.0,43,0.00,FEW,OVC,0.00,WeatherDisplay:10.37,2013-04-26 15:30:00,
2013-04-26 11:35:00,53.3,31.9,30.35,SSE,168,5.0,9.0,44,0.00,FEW,OVC,0.00,WeatherDisplay:10.37,2013-04-26 15:35:00,
2013-04-26 11:40:00,53.3,30.8,30.35,South,182,5.0,12.0,42,0.00,FEW,OVC,0.00,WeatherDisplay:10.37,2013-04-26 15:40:00,
2013-04-26 11:45:00,53.6,32.2,30.35,South,181,3.0,12.0,44,0.00,FEW,OVC,0.00,WeatherDisplay:10.37,2013-04-26 15:45:00,
2013-04-26 11:50:00,54.1,32.0,30.35,South,178,3.0,14.0,43,0.00,FEW,OVC,0.00,WeatherDisplay:10.37,2013-04-26 15:50:00,
2013-04-26 11:55:00,54.4,33.5,30.35,South,176,3.0,12.0,45,0.00,FEW,OVC,0.00,WeatherDisplay:10.37,2013-04-26 15:55:00,
2013-04-26 12:00:00,54.2,31.0,30.35,South,187,3.0,12.0,41,0.00,SCT,OVC,0.00,WeatherDisplay:10.37,2013-04-26 16:00:00,
2013-04-26 12:05:00,54.4,32.3,30.34,SSW,195,3.0,14.0,43,0.00,SCT,OVC,0.00,WeatherDisplay:10.37,2013-04-26 16:05:00,
2013-04-26 12:10:00,54.5,31.3,30.34,SSW,197,6.0,12.0,41,0.00,SCT,OVC,0.00,WeatherDisplay:10.37,2013-04-26 16:10:00,
2013-04-26 12:15:00,55.2,31.9,30.34,South,181,6.0,12.0,41,0.00,SCT,OVC,0.00,WeatherDisplay:10.37,2013-04-26 16:15:00,
2013-04-26 12:20:00,55.4,32.1,30.33,SSE,157,3.0,12.0,41,0.00,SCT,OVC,0.00,WeatherDisplay:10.37,2013-04-26 16:20:00,
2013-04-26 12:25:00,55.6,32.3,30.33,SSE,164,3.0,8.0,41,0.00,SCT,OVC,0.00,WeatherDisplay:10.37,2013-04-26 16:25:00,
2013-04-26 12:30:00,56.1,32.7,30.33,SSE,159,3.0,10.0,41,0.00,SCT,OVC,0.00,WeatherDisplay:10.37,2013-04-26 16:30:00,
2013-04-26 12:35:00,56.2,32.8,30.34,SSE,159,3.0,10.0,41,0.00,SCT,OVC,0.00,WeatherDisplay:10.37,2013-04-26 16:35:00,
2013-04-26 12:40:00,56.5,32.4,30.33,South,172,5.0,10.0,40,0.00,SCT,OVC,0.00,WeatherDisplay:10.37,2013-04-26 16:40:00,
2013-04-26 12:45:00,56.5,31.8,30.33,South,173,3.0,13.0,39,0.00,SCT,OVC,0.00,WeatherDisplay:10.37,2013-04-26 16:45:00,
2013-04-26 12:50:00,56.9,32.2,30.33,SSE,161,5.0,12.0,39,0.00,SCT,OVC,0.00,WeatherDisplay:10.37,2013-04-26 16:50:00,
2013-04-26 12:55:00,57.5,33.3,30.33,SSE,160,3.0,10.0,40,0.00,SCT,OVC,0.00,WeatherDisplay:10.37,2013-04-26 16:55:00,
2013-04-26 13:00:00,57.9,32.4,30.33,SE,136,6.0,12.0,38,0.00,SCT,OVC,0.00,WeatherDisplay:10.37,2013-04-26 17:00:00,
2013-04-26 13:05:00,57.8,33.0,30.33,SSE,153,5.0,12.0,39,0.00,SCT,OVC,0.00,WeatherDisplay:10.37,2013-04-26 17:05:00,
2013-04-26 13:10:00,57.9,33.1,30.32,SSE,157,5.0,10.0,39,0.00,SCT,OVC,0.00,WeatherDisplay:10.37,2013-04-26 17:10:00,
2013-04-26 13:15:00,57.7,32.3,30.32,South,169,7.0,13.0,38,0.00,SCT,OVC,0.00,WeatherDisplay:10.37,2013-04-26 17:15:00,
2013-04-26 13:20:00,57.7,33.5,30.31,SSE,160,5.0,13.0,40,0.00,SCT,OVC,0.00,WeatherDisplay:10.37,2013-04-26 17:20:00,
2013-04-26 13:25:00,57.6,31.5,30.31,SSE,154,5.0,12.0,37,0.00,SCT,OVC,0.00,WeatherDisplay:10.37,2013-04-26 17:25:00,
2013-04-26 13:30:00,57.9,34.3,30.31,SSE,161,3.0,10.0,41,0.00,SCT,OVC,0.00,WeatherDisplay:10.37,2013-04-26 17:30:00,
2013-04-26 13:35:00,58.0,33.8,30.31,SSE,165,6.0,12.0,40,0.00,SCT,OVC,0.00,WeatherDisplay:10.37,2013-04-26 17:35:00,
2013-04-26 13:40:00,58.4,34.8,30.31,South,173,3.0,10.0,41,0.00,SCT,OVC,0.00,WeatherDisplay:10.37,2013-04-26 17:40:00,
2013-04-26 13:45:00,58.8,33.9,30.31,SSE,166,6.0,12.0,39,0.00,SCT,OVC,0.00,WeatherDisplay:10.37,2013-04-26 17:45:00,
2013-04-26 13:50:00,59.1,34.8,30.31,SSE,160,3.0,9.0,40,0.00,SCT,OVC,0.00,WeatherDisplay:10.37,2013-04-26 17:50:00,
2013-04-26 13:55:00,60.2,37.0,30.31,SSE,166,3.0,8.0,42,0.00,SCT,OVC,0.00,WeatherDisplay:10.37,2013-04-26 17:55:00,
2013-04-26 14:00:00,60.3,34.6,30.30,SSE,165,5.0,12.0,38,0.00,SCT,OVC,0.00,WeatherDisplay:10.37,2013-04-26 18:00:00,
2013-04-26 14:05:00,60.0,33.6,30.30,SSE,168,5.0,12.0,37,0.00,SCT,OVC,0.00,WeatherDisplay:10.37,2013-04-26 18:05:00,
2013-04-26 14:10:00,59.6,35.2,30.30,SSE,165,3.0,13.0,40,0.00,SCT,OVC,0.00,WeatherDisplay:10.37,2013-04-26 18:10:00,
2013-04-26 14:15:00,59.9,34.2,30.30,South,170,6.0,12.0,38,0.00,SCT,OVC,0.00,WeatherDisplay:10.37,2013-04-26 18:15:00,
2013-04-26 14:20:00,59.9,34.2,30.30,South,184,5.0,16.0,38,0.00,SCT,OVC,0.00,WeatherDisplay:10.37,2013-04-26 18:20:00,
2013-04-26 14:25:00,59.9,36.1,30.30,SSW,197,1.0,12.0,41,0.00,SCT,OVC,0.00,WeatherDisplay:10.37,2013-04-26 18:25:00,
2013-04-26 14:30:00,60.4,33.3,30.29,SSW,195,7.0,12.0,36,0.00,SCT,OVC,0.00,WeatherDisplay:10.37,2013-04-26 18:30:00,
2013-04-26 14:35:00,60.2,33.8,30.29,South,183,6.0,17.0,37,0.00,SCT,OVC,0.00,WeatherDisplay:10.37,2013-04-26 18:35:00,
2013-04-26 14:40:00,60.2,33.8,30.29,SSW,196,8.0,13.0,37,0.00,SCT,OVC,0.00,WeatherDisplay:10.37,2013-04-26 18:40:00,
2013-04-26 14:45:00,60.0,34.3,30.29,SSW,207,7.0,12.0,38,0.00,SCT,OVC,0.00,WeatherDisplay:10.37,2013-04-26 18:45:00,
2013-04-26 14:50:00,60.9,35.8,30.29,South,190,5.0,12.0,39,0.00,SCT,OVC,0.00,WeatherDisplay:10.37,2013-04-26 18:50:00,
2013-04-26 14:55:00,61.3,34.8,30.29,South,182,5.0,14.0,37,0.00,SCT,OVC,0.00,WeatherDisplay:10.37,2013-04-26 18:55:00,
2013-04-26 15:00:00,61.5,36.9,30.29,SSW,192,5.0,9.0,40,0.00,SCT,OVC,0.00,WeatherDisplay:10.37,2013-04-26 19:00:00,
2013-04-26 15:05:00,61.8,35.2,30.29,SSW,200,7.0,15.0,37,0.00,SCT,OVC,0.00,WeatherDisplay:10.37,2013-04-26 19:05:00,
2013-04-26 15:10:00,61.8,35.2,30.29,South,177,5.0,9.0,37,0.00,SCT,OVC,0.00,WeatherDisplay:10.37,2013-04-26 19:10:00,
2013-04-26 15:15:00,62.0,35.4,30.29,SSE,168,7.0,13.0,37,0.00,SCT,OVC,0.00,WeatherDisplay:10.37,2013-04-26 19:15:00,
2013-04-26 15:20:00,62.4,35.8,30.28,South,186,8.0,12.0,37,0.00,SCT,OVC,0.00,WeatherDisplay:10.37,2013-04-26 19:20:00,
2013-04-26 15:25:00,62.4,35.8,30.28,South,174,7.0,14.0,37,0.00,SCT,OVC,0.00,WeatherDisplay:10.37,2013-04-26 19:25:00,
2013-04-26 15:30:00,62.5,35.2,30.28,South,183,8.0,15.0,36,0.00,SCT,OVC,0.00,WeatherDisplay:10.37,2013-04-26 19:30:00,
2013-04-26 15:35:00,62.6,36.0,30.27,SW,214,5.0,9.0,37,0.00,SCT,OVC,0.00,WeatherDisplay:10.37,2013-04-26 19:35:00,
2013-04-26 15:40:00,62.9,34.1,30.27,SSW,209,8.0,14.0,34,0.00,SCT,OVC,0.00,WeatherDisplay:10.37,2013-04-26 19:40:00,
2013-04-26 15:45:00,62.9,34.1,30.27,SSW,193,8.0,15.0,34,0.00,SCT,OVC,0.00,WeatherDisplay:10.37,2013-04-26 19:45:00,
2013-04-26 15:50:00,62.7,33.2,30.26,SSW,192,9.0,18.0,33,0.00,SCT,OVC,0.00,WeatherDisplay:10.37,2013-04-26 19:50:00,
2013-04-26 15:55:00,62.8,35.5,30.26,SSW,198,6.0,10.0,36,0.00,SCT,OVC,0.00,WeatherDisplay:10.37,2013-04-26 19:55:00,
2013-04-26 16:00:00,63.2,35.8,30.26,South,187,6.0,18.0,36,0.00,SCT,OVC,0.00,WeatherDisplay:10.37,2013-04-26 20:00:00,
2013-04-26 16:05:00,63.5,36.7,30.26,South,184,6.0,12.0,37,0.00,SCT,OVC,0.00,WeatherDisplay:10.37,2013-04-26 20:05:00,
2013-04-26 16:10:00,63.4,34.5,30.25,South,186,8.0,17.0,34,0.00,SCT,OVC,0.00,WeatherDisplay:10.37,2013-04-26 20:10:00,
2013-04-26 16:15:00,63.2,35.1,30.25,South,185,6.0,14.0,35,0.00,SCT,OVC,0.00,WeatherDisplay:10.37,2013-04-26 20:15:00,
2013-04-26 16:20:00,63.4,36.0,30.25,SSW,192,6.0,10.0,36,0.00,SCT,OVC,0.00,WeatherDisplay:10.37,2013-04-26 20:20:00,
2013-04-26 16:25:00,63.5,35.3,30.25,SSW,195,6.0,15.0,35,0.00,SCT,OVC,0.00,WeatherDisplay:10.37,2013-04-26 20:25:00,
2013-04-26 16:30:00,63.4,36.0,30.25,SSW,196,3.0,14.0,36,0.00,SCT,OVC,0.00,WeatherDisplay:10.37,2013-04-26 20:30:00,
2013-04-26 16:35:00,63.6,34.7,30.24,South,189,7.0,14.0,34,0.00,SCT,OVC,0.00,WeatherDisplay:10.37,2013-04-26 20:35:00,
2013-04-26 16:40:00,63.5,35.3,30.24,SSW,208,9.0,18.0,35,0.00,SCT,OVC,0.00,WeatherDisplay:10.37,2013-04-26 20:40:00,
2013-04-26 16:45:00,63.5,35.3,30.24,SSW,201,9.0,18.0,35,0.00,SCT,OVC,0.00,WeatherDisplay:10.37,2013-04-26 20:45:00,
2013-04-26 16:50:00,63.3,34.4,30.24,SSW,200,10.0,18.0,34,0.00,SCT,OVC,0.00,WeatherDisplay:10.37,2013-04-26 20:50:00,
2013-04-26 16:55:00,63.6,36.1,30.24,SSW,192,7.0,13.0,36,0.00,SCT,OVC,0.00,WeatherDisplay:10.37,2013-04-26 20:55:00,
2013-04-26 17:00:00,63.9,37.1,30.23,SSW,194,5.0,12.0,37,0.00,SCT,OVC,0.00,WeatherDisplay:10.37,2013-04-26 21:00:00,
2013-04-26 17:05:00,64.2,36.0,30.23,SSW,206,7.0,13.0,35,0.00,SCT,OVC,0.00,WeatherDisplay:10.37,2013-04-26 21:05:00,
2013-04-26 17:10:00,64.2,35.9,30.23,SSW,197,7.0,12.0,35,0.00,SCT,OVC,0.00,WeatherDisplay:10.37,2013-04-26 21:10:00,
2013-04-26 17:15:00,64.1,36.6,30.23,South,191,5.0,12.0,36,0.00,SCT,OVC,0.00,WeatherDisplay:10.37,2013-04-26 21:15:00,
2013-04-26 17:20:00,64.3,36.0,30.23,South,184,6.0,15.0,35,0.00,SCT,OVC,0.00,WeatherDisplay:10.37,2013-04-26 21:20:00,
2013-04-26 17:25:00,64.4,36.1,30.23,South,183,7.0,13.0,35,0.00,SCT,OVC,0.00,WeatherDisplay:10.37,2013-04-26 21:25:00,
2013-04-26 17:30:00,64.3,36.0,30.23,SSW,197,7.0,10.0,35,0.00,SCT,OVC,0.00,WeatherDisplay:10.37,2013-04-26 21:30:00,
2013-04-26 17:35:00,64.4,37.5,30.23,SSW,197,3.0,12.0,37,0.00,SCT,OVC,0.00,WeatherDisplay:10.37,2013-04-26 21:35:00,
2013-04-26 17:40:00,64.5,37.6,30.23,South,191,5.0,15.0,37,0.00,SCT,OVC,0.00,WeatherDisplay:10.37,2013-04-26 21:40:00,
2013-04-26 17:45:00,64.8,37.2,30.23,South,187,7.0,12.0,36,0.00,SCT,OVC,0.00,WeatherDisplay:10.37,2013-04-26 21:45:00,
2013-04-26 17:50:00,64.8,37.2,30.23,South,182,3.0,12.0,36,0.00,SCT,OVC,0.00,WeatherDisplay:10.37,2013-04-26 21:50:00,
2013-04-26 17:55:00,64.8,37.2,30.23,South,188,7.0,12.0,36,0.00,SCT,OVC,0.00,WeatherDisplay:10.37,2013-04-26 21:55:00,
2013-04-26 18:00:00,64.5,36.9,30.23,SSW,199,8.0,15.0,36,0.00,FEW,OVC,0.00,WeatherDisplay:10.37,2013-04-26 22:00:00,
2013-04-26 18:05:00,64.6,37.1,30.23,SSW,206,7.0,14.0,36,0.00,FEW,OVC,0.00,WeatherDisplay:10.37,2013-04-26 22:05:00,
2013-04-26 18:10:00,64.7,37.8,30.23,South,191,7.0,10.0,37,0.00,FEW,OVC,0.00,WeatherDisplay:10.37,2013-04-26 22:10:00,
2013-04-26 18:15:00,64.8,37.9,30.23,South,183,5.0,7.0,37,0.00,FEW,OVC,0.00,WeatherDisplay:10.37,2013-04-26 22:15:00,
2013-04-26 18:20:00,64.7,37.1,30.23,SSW,200,8.0,15.0,36,0.00,FEW,OVC,0.00,WeatherDisplay:10.37,2013-04-26 22:20:00,
2013-04-26 18:25:00,64.5,36.9,30.23,SSW,211,7.0,15.0,36,0.00,FEW,OVC,0.00,WeatherDisplay:10.37,2013-04-26 22:25:00,
2013-04-26 18:30:00,64.4,36.8,30.23,SW,216,8.0,12.0,36,0.00,FEW,OVC,0.00,WeatherDisplay:10.37,2013-04-26 22:30:00,
2013-04-26 18:35:00,64.6,37.0,30.23,SW,216,6.0,12.0,36,0.00,FEW,OVC,0.00,WeatherDisplay:10.37,2013-04-26 22:35:00,
2013-04-26 18:40:00,64.8,37.9,30.23,SSW,206,5.0,9.0,37,0.00,FEW,OVC,0.00,WeatherDisplay:10.37,2013-04-26 22:40:00,
2013-04-26 18:45:00,64.7,37.1,30.23,SSW,199,6.0,14.0,36,0.00,FEW,OVC,0.00,WeatherDisplay:10.37,2013-04-26 22:45:00,
2013-04-26 18:50:00,64.3,37.5,30.23,SSW,202,6.0,15.0,37,0.00,FEW,OVC,0.00,WeatherDisplay:10.37,2013-04-26 22:50:00,
2013-04-26 18:55:00,64.4,38.2,30.22,SSW,197,2.0,5.0,38,0.00,FEW,OVC,0.00,WeatherDisplay:10.37,2013-04-26 22:55:00,
2013-04-26 19:00:00,64.5,37.6,30.22,South,186,8.0,13.0,37,0.00,FEW,OVC,0.00,WeatherDisplay:10.37,2013-04-26 23:00:00,
2013-04-26 19:05:00,64.3,38.1,30.23,SSW,203,6.0,9.0,38,0.00,FEW,OVC,0.00,WeatherDisplay:10.37,2013-04-26 23:05:00,
2013-04-26 19:10:00,64.3,38.1,30.23,SSW,204,6.0,12.0,38,0.00,FEW,OVC,0.00,WeatherDisplay:10.37,2013-04-26 23:10:00,
2013-04-26 19:15:00,64.2,37.4,30.23,South,191,6.0,12.0,37,0.00,FEW,OVC,0.00,WeatherDisplay:10.37,2013-04-26 23:15:00,
2013-04-26 19:20:00,64.0,37.2,30.23,South,190,8.0,10.0,37,0.00,FEW,OVC,0.00,WeatherDisplay:10.37,2013-04-26 23:20:00,
2013-04-26 19:25:00,63.8,37.7,30.23,SSW,195,5.0,12.0,38,0.00,FEW,OVC,0.00,WeatherDisplay:10.37,2013-04-26 23:25:00,
2013-04-26 19:30:00,63.6,38.2,30.23,SSW,199,3.0,7.0,39,0.00,FEW,OVC,0.00,WeatherDisplay:10.37,2013-04-26 23:30:00,
2013-04-26 19:35:00,63.6,38.8,30.23,SSW,192,2.0,6.0,40,0.00,FEW,OVC,0.00,WeatherDisplay:10.37,2013-04-26 23:35:00,
2013-04-26 19:40:00,63.4,38.6,30.23,SSW,193,2.0,10.0,40,0.00,FEW,OVC,0.00,WeatherDisplay:10.37,2013-04-26 23:40:00,
2013-04-26 19:45:00,63.2,38.5,30.23,SSW,196,3.0,9.0,40,0.00,FEW,OVC,0.00,WeatherDisplay:10.37,2013-04-26 23:45:00,
2013-04-26 19:50:00,63.0,38.9,30.23,South,190,2.0,6.0,41,0.00,FEW,OVC,0.00,WeatherDisplay:10.37,2013-04-26 23:50:00,
2013-04-26 20:05:00,62.2,40.0,30.24,SW,233,5.0,12.0,44,0.00,FEW,OVC,0.00,WeatherDisplay:10.37,2013-04-27 00:05:00,
2013-04-26 20:10:00,61.8,40.2,30.24,SW,235,5.0,6.0,45,0.00,FEW,OVC,0.00,WeatherDisplay:10.37,2013-04-27 00:10:00,
2013-04-26 20:15:00,61.4,39.8,30.24,SW,235,5.0,6.0,45,0.00,FEW,OVC,0.00,WeatherDisplay:10.37,2013-04-27 00:15:00,
2013-04-26 20:20:00,61.1,40.1,30.24,SW,231,3.0,6.0,46,0.00,FEW,OVC,0.00,WeatherDisplay:10.37,2013-04-27 00:20:00,
2013-04-26 20:25:00,60.8,40.4,30.24,SW,220,2.0,6.0,47,0.00,FEW,OVC,0.00,WeatherDisplay:10.37,2013-04-27 00:25:00,
2013-04-26 20:30:00,60.5,40.7,30.24,SSW,212,1.0,4.0,48,0.00,FEW,OVC,0.00,WeatherDisplay:10.37,2013-04-27 00:30:00,
2013-04-26 20:35:00,60.2,40.4,30.24,SSW,212,2.0,4.0,48,0.00,FEW,OVC,0.00,WeatherDisplay:10.37,2013-04-27 00:35:00,
2013-04-26 20:40:00,59.9,40.2,30.24,SSW,211,2.0,4.0,48,0.00,FEW,OVC,0.00,WeatherDisplay:10.37,2013-04-27 00:40:00,
2013-04-26 20:45:00,59.7,40.5,30.24,SW,216,1.0,5.0,49,0.00,FEW,OVC,0.00,WeatherDisplay:10.37,2013-04-27 00:45:00,
2013-04-26 20:50:00,59.4,40.2,30.24,SW,226,1.0,5.0,49,0.00,FEW,OVC,0.00,WeatherDisplay:10.37,2013-04-27 00:50:00,
2013-04-26 20:55:00,59.2,40.0,30.24,SW,214,2.0,9.0,49,0.00,FEW,OVC,0.00,WeatherDisplay:10.37,2013-04-27 00:55:00,
2013-04-26 21:00:00,59.0,40.3,30.24,SSW,197,1.0,2.0,50,0.00,FEW,OVC,0.00,WeatherDisplay:10.37,2013-04-27 01:00:00,
2013-04-26 21:05:00,58.6,40.0,30.24,South,190,1.0,3.0,50,0.00,FEW,OVC,0.00,WeatherDisplay:10.37,2013-04-27 01:05:00,
2013-04-26 21:10:00,58.3,40.7,30.24,South,190,1.0,3.0,52,0.00,FEW,OVC,0.00,WeatherDisplay:10.37,2013-04-27 01:10:00,
2013-04-26 21:15:00,57.9,40.4,30.24,South,190,2.0,5.0,52,0.00,FEW,OVC,0.00,WeatherDisplay:10.37,2013-04-27 01:15:00,
2013-04-26 21:20:00,57.7,40.7,30.25,South,179,0.0,1.0,53,0.00,FEW,OVC,0.00,WeatherDisplay:10.37,2013-04-27 01:20:00,
2013-04-26 21:25:00,57.5,40.5,30.24,South,173,0.0,2.0,53,0.00,FEW,OVC,0.00,WeatherDisplay:10.37,2013-04-27 01:25:00,
2013-04-26 21:30:00,57.2,40.7,30.24,South,173,0.0,1.0,54,0.00,FEW,OVC,0.00,WeatherDisplay:10.37,2013-04-27 01:30:00,
2013-04-26 21:35:00,57.0,40.9,30.25,South,173,0.0,2.0,55,0.00,FEW,OVC,0.00,WeatherDisplay:10.37,2013-04-27 01:35:00,
2013-04-26 21:40:00,56.6,41.1,30.25,South,173,0.0,2.0,56,0.00,FEW,OVC,0.00,WeatherDisplay:10.37,2013-04-27 01:40:00,
2013-04-26 21:45:00,56.3,40.8,30.25,South,173,0.0,2.0,56,0.00,FEW,OVC,0.00,WeatherDisplay:10.37,2013-04-27 01:45:00,
2013-04-26 21:50:00,56.0,41.0,30.24,SW,217,2.0,7.0,57,0.00,FEW,OVC,0.00,WeatherDisplay:10.37,2013-04-27 01:50:00,
2013-04-26 21:55:00,55.9,40.4,30.24,SSW,197,2.0,4.0,56,0.00,FEW,OVC,0.00,WeatherDisplay:10.37,2013-04-27 01:55:00,
2013-04-26 22:00:00,56.0,40.5,30.25,South,177,1.0,4.0,56,0.00,FEW,OVC,0.00,WeatherDisplay:10.37,2013-04-27 02:00:00,
2013-04-26 22:05:00,55.9,40.4,30.25,South,169,1.0,3.0,56,0.00,FEW,OVC,0.00,WeatherDisplay:10.37,2013-04-27 02:05:00,
2013-04-26 22:10:00,55.8,39.9,30.25,SSE,163,1.0,3.0,55,0.00,FEW,OVC,0.00,WeatherDisplay:10.37,2013-04-27 02:10:00,
2013-04-26 22:15:00,55.8,39.9,30.25,South,170,2.0,7.0,55,0.00,FEW,OVC,0.00,WeatherDisplay:10.37,2013-04-27 02:15:00,
2013-04-26 22:20:00,55.9,40.0,30.25,SSE,167,2.0,5.0,55,0.00,FEW,OVC,0.00,WeatherDisplay:10.37,2013-04-27 02:20:00,
2013-04-26 22:25:00,55.8,39.9,30.25,SSE,163,1.0,4.0,55,0.00,FEW,OVC,0.00,WeatherDisplay:10.37,2013-04-27 02:25:00,
2013-04-26 22:30:00,55.6,39.7,30.25,SSE,165,0.0,3.0,55,0.00,FEW,OVC,0.00,WeatherDisplay:10.37,2013-04-27 02:30:00,
2013-04-26 22:35:00,55.4,39.5,30.25,SSE,161,1.0,4.0,55,0.00,FEW,OVC,0.00,WeatherDisplay:10.37,2013-04-27 02:35:00,
2013-04-26 22:40:00,55.3,39.9,30.25,SSE,156,1.0,5.0,56,0.00,FEW,OVC,0.00,WeatherDisplay:10.37,2013-04-27 02:40:00,
2013-04-26 22:45:00,55.2,39.8,30.25,SSE,166,0.0,3.0,56,0.00,FEW,OVC,0.00,WeatherDisplay:10.37,2013-04-27 02:45:00,
2013-04-26 22:50:00,55.0,39.6,30.25,South,185,1.0,5.0,56,0.00,FEW,OVC,0.00,WeatherDisplay:10.37,2013-04-27 02:50:00,
2013-04-26 22:55:00,54.9,39.9,30.25,SSW,192,1.0,2.0,57,0.00,FEW,OVC,0.00,WeatherDisplay:10.37,2013-04-27 02:55:00,
2013-04-26 23:00:00,54.7,39.8,30.25,South,181,0.0,2.0,57,0.00,FEW,OVC,0.00,WeatherDisplay:10.37,2013-04-27 03:00:00,
2013-04-26 23:05:00,54.6,39.6,30.25,South,176,0.0,2.0,57,0.00,FEW,OVC,0.00,WeatherDisplay:10.37,2013-04-27 03:05:00,
2013-04-26 23:10:00,54.4,39.5,30.26,South,169,1.0,4.0,57,0.00,FEW,OVC,0.00,WeatherDisplay:10.37,2013-04-27 03:10:00,
2013-04-26 23:15:00,54.3,39.4,30.25,SSE,164,1.0,4.0,57,0.00,FEW,OVC,0.00,WeatherDisplay:10.37,2013-04-27 03:15:00,
2013-04-26 23:20:00,54.3,39.8,30.25,South,183,2.0,6.0,58,0.00,FEW,OVC,0.00,WeatherDisplay:10.37,2013-04-27 03:20:00,
2013-04-26 23:25:00,54.3,39.8,30.25,South,187,1.0,4.0,58,0.00,FEW,OVC,0.00,WeatherDisplay:10.37,2013-04-27 03:25:00,
2013-04-26 23:30:00,54.3,39.8,30.25,South,171,1.0,4.0,58,0.00,FEW,OVC,0.00,WeatherDisplay:10.37,2013-04-27 03:30:00,
2013-04-26 23:35:00,54.2,39.7,30.25,South,170,2.0,4.0,58,0.00,FEW,OVC,0.00,WeatherDisplay:10.37,2013-04-27 03:35:00,
2013-04-26 23:40:00,54.1,39.6,30.25,South,175,2.0,7.0,58,0.00,FEW,OVC,0.00,WeatherDisplay:10.37,2013-04-27 03:40:00,
2013-04-26 23:45:00,54.0,39.5,30.25,South,176,2.0,6.0,58,0.00,FEW,OVC,0.00,WeatherDisplay:10.37,2013-04-27 03:45:00,
2013-04-26 23:50:00,54.0,39.5,30.25,South,177,3.0,7.0,58,0.00,FEW,OVC,0.00,WeatherDisplay:10.37,2013-04-27 03:50:00,
2013-04-26 23:55:00,54.0,39.5,30.25,South,178,1.0,3.0,58,0.00,FEW,OVC,0.00,WeatherDisplay:10.37,2013-04-27 03:55:00,